TimeCDT,TemperatureF,Dew PointF,Humidity,Sea Level PressureIn,VisibilityMPH,Wind Direction,Wind SpeedMPH,Gust SpeedMPH,PrecipitationIn,Events,Conditions,WindDirDegrees,DateUTC
12:54 AM,75.9,71.1,85,29.86,10.0,SE,10.4,-,N/A,,Clear,130,2013-09-24 05:54:00
1:54 AM,73.9,71.1,91,29.87,10.0,SE,6.9,-,N/A,,Partly Cloudy,140,2013-09-24 06:54:00
2:54 AM,73.9,71.1,91,29.86,10.0,SE,5.8,-,N/A,,Partly Cloudy,130,2013-09-24 07:54:00
3:06 AM,73.4,71.6,94,29.88,10.0,ESE,8.1,-,N/A,,Partly Cloudy,120,2013-09-24 08:06:00
3:36 AM,73.4,71.6,94,29.88,10.0,SE,6.9,-,N/A,,Mostly Cloudy,130,2013-09-24 08:36:00
3:54 AM,73.9,71.1,91,29.86,10.0,SE,6.9,-,N/A,,Overcast,140,2013-09-24 08:54:00
4:12 AM,73.4,71.6,94,29.87,10.0,ESE,4.6,-,N/A,,Overcast,120,2013-09-24 09:12:00
4:54 AM,75.0,72.0,90,29.85,9.0,ESE,6.9,-,N/A,,Overcast,120,2013-09-24 09:54:00
5:54 AM,75.0,72.0,90,29.86,8.0,ESE,4.6,-,N/A,,Overcast,120,2013-09-24 10:54:00
6:54 AM,75.0,73.0,94,29.85,7.0,SE,9.2,-,N/A,,Overcast,140,2013-09-24 11:54:00
7:54 AM,75.9,73.0,91,29.85,7.0,SE,10.4,-,N/A,,Overcast,140,2013-09-24 12:54:00
8:50 AM,75.2,73.4,94,29.85,1.8,SE,10.4,-,0.00,Rain,Heavy Rain,140,2013-09-24 13:50:00
8:54 AM,75.9,73.9,94,29.84,1.5,SE,12.7,-,0.05,Rain,Heavy Rain,140,2013-09-24 13:54:00
9:00 AM,75.2,73.4,94,29.85,4.0,SE,11.5,-,0.04,Rain,Light Rain,140,2013-09-24 14:00:00
9:54 AM,77.0,73.9,90,29.83,9.0,SE,12.7,-,0.04,,Overcast,140,2013-09-24 14:54:00
10:54 AM,77.0,73.9,90,29.82,10.0,SE,9.2,-,0.00,,Overcast,140,2013-09-24 15:54:00
11:10 AM,77.0,73.4,89,29.85,1.8,SSW,5.8,-,0.02,Rain,Heavy Rain,210,2013-09-24 16:10:00
11:20 AM,75.2,73.4,94,29.87,0.2,NW,9.2,-,0.18,Fog-Rain-Thunderstorm,Heavy Thunderstorms and Rain,310,2013-09-24 16:20:00
11:33 AM,71.6,69.8,94,29.87,0.5,NNW,6.9,20.7,0.62,Fog-Rain-Thunderstorm,Heavy Thunderstorms and Rain,340,2013-09-24 16:33:00
11:50 AM,71.6,69.8,94,29.87,0.2,NW,8.1,-,1.38,Fog-Rain-Thunderstorm,Heavy Thunderstorms and Rain,310,2013-09-24 16:50:00
11:54 AM,71.1,70.0,96,29.86,0.2,NW,4.6,-,1.57,Fog-Rain-Thunderstorm,Heavy Thunderstorms and Rain,320,2013-09-24 16:54:00
12:08 PM,71.6,71.6,100,29.86,0.8,Calm,Calm,-,0.33,Rain-Thunderstorm,Heavy Thunderstorms and Rain,0,2013-09-24 17:08:00
12:19 PM,71.6,69.8,94,29.84,1.2,NNW,10.4,-,0.42,Rain-Thunderstorm,Heavy Thunderstorms and Rain,330,2013-09-24 17:19:00
12:23 PM,71.6,69.8,94,29.84,3.0,NW,8.1,-,0.43,Rain-Thunderstorm,Thunderstorms and Rain,310,2013-09-24 17:23:00
12:39 PM,71.6,69.8,94,29.83,10.0,Calm,Calm,-,0.46,Rain-Thunderstorm,Light Thunderstorms and Rain,0,2013-09-24 17:39:00
12:51 PM,71.6,69.8,94,29.83,10.0,ESE,3.5,-,0.46,,Overcast,120,2013-09-24 17:51:00
12:54 PM,72.0,70.0,93,29.82,10.0,ESE,3.5,-,0.46,,Overcast,120,2013-09-24 17:54:00
1:06 PM,71.6,69.8,94,29.82,10.0,Calm,Calm,-,N/A,,Overcast,0,2013-09-24 18:06:00
1:12 PM,73.4,69.8,88,29.81,10.0,Calm,Calm,-,N/A,,Overcast,0,2013-09-24 18:12:00
1:46 PM,73.4,71.6,94,29.83,9.0,West,5.8,-,0.00,Rain,Light Rain,270,2013-09-24 18:46:00
1:54 PM,73.0,71.1,93,29.83,10.0,WSW,4.6,-,0.00,Rain,Light Rain,250,2013-09-24 18:54:00
2:54 PM,73.9,72.0,93,29.80,8.0,Calm,Calm,-,0.02,Rain,Light Rain,0,2013-09-24 19:54:00
3:54 PM,75.9,71.1,85,29.80,10.0,NW,3.5,-,0.00,,Overcast,310,2013-09-24 20:54:00
4:31 PM,78.8,71.6,78,29.80,10.0,NNW,6.9,-,N/A,,Mostly Cloudy,330,2013-09-24 21:31:00
4:54 PM,79.0,72.0,79,29.77,10.0,North,8.1,-,N/A,,Scattered Clouds,350,2013-09-24 21:54:00
5:54 PM,78.1,71.1,79,29.77,10.0,NNE,5.8,-,N/A,,Scattered Clouds,20,2013-09-24 22:54:00
6:25 PM,75.2,71.6,89,29.79,10.0,North,4.6,-,N/A,,Mostly Cloudy,350,2013-09-24 23:25:00
6:54 PM,75.9,72.0,87,29.79,10.0,NE,5.8,-,N/A,,Mostly Cloudy,40,2013-09-24 23:54:00
7:54 PM,75.0,72.0,90,29.80,10.0,Calm,Calm,-,N/A,,Mostly Cloudy,0,2013-09-25 00:54:00
8:54 PM,73.9,72.0,93,29.81,10.0,Calm,Calm,-,N/A,,Mostly Cloudy,0,2013-09-25 01:54:00
9:36 PM,71.6,69.8,94,29.82,5.0,Calm,Calm,-,N/A,,Mostly Cloudy,0,2013-09-25 02:36:00
9:54 PM,71.1,70.0,96,29.81,5.0,Calm,Calm,-,N/A,,Mostly Cloudy,0,2013-09-25 02:54:00
10:18 PM,71.6,69.8,94,29.82,10.0,Calm,Calm,-,N/A,,Mostly Cloudy,0,2013-09-25 03:18:00
10:54 PM,72.0,71.1,97,29.81,10.0,Calm,Calm,-,N/A,,Overcast,0,2013-09-25 03:54:00
11:33 PM,73.4,71.6,94,29.81,10.0,Calm,Calm,-,N/A,,Overcast,0,2013-09-25 04:33:00
11:54 PM,72.0,71.1,97,29.80,10.0,NE,3.5,-,N/A,,Overcast,40,2013-09-25 04:54:00